Location: Six Mile Lake
(44.9000°N, 79.7170°W)
Time: 22:04:57
(UTC-04:00)

NOAA 18 - Visible Passes

Search period start: 29 June 2022 00:00
Search period end: 09 July 2022 00:00
Orbit: 840 x 859 km, 98.9° (Epoch: 29 June)

Date Brightness Start Highest point End Pass type
(mag) Time Alt. Az. Time Alt. Az. Time Alt. Az.
29 Jun 7.3 00:21:19 10° SW 00:24:48 17° W 00:28:19 10° NW visible
29 Jun 5.5 22:26:59 14° SE 22:31:35 57° ENE 22:37:00 10° N visible
30 Jun 7.1 00:08:59 12° SW 00:12:36 22° W 00:16:47 10° NW visible
30 Jun 5.8 22:14:48 12° SE 22:19:35 46° ENE 22:24:52 10° N visible
30 Jun 6.8 23:56:47 14° SW 00:00:26 27° W 00:05:06 10° NW visible
01 Jul 6.0 22:02:38 10° SE 22:07:38 37° ENE 22:12:41 10° N visible
01 Jul 6.4 23:44:36 16° SSW 23:48:18 34° W 23:53:18 10° NNW visible
02 Jul 6.3 21:50:59 10° ESE 21:55:42 30° ENE 22:00:27 10° N visible
02 Jul 6.1 23:32:25 18° SSW 23:36:10 43° W 23:41:27 10° NNW visible
03 Jul 6.6 21:39:25 10° ESE 21:43:47 25° ENE 21:48:10 10° N visible
03 Jul 5.7 23:20:14 19° S 23:24:04 54° W 23:29:32 10° NNW visible
04 Jul 5.4 23:08:03 19° S 23:12:00 69° WSW 23:17:33 10° NNW visible
05 Jul 5.2 22:55:51 19° SSE 22:59:57 85° WSW 23:05:32 10° NNW visible
06 Jul 7.5 00:39:19 10° WSW 00:41:24 12° W 00:43:30 10° WNW visible
06 Jul 5.2 22:43:41 18° SSE 22:47:55 77° ENE 22:53:28 10° NNW visible
07 Jul 7.4 00:25:57 10° SW 00:29:11 16° W 00:32:27 10° NW visible
07 Jul 5.4 22:31:30 16° SSE 22:35:54 62° ENE 22:41:23 10° N visible
08 Jul 7.1 00:13:29 12° SW 00:16:59 20° W 00:21:00 10° NW visible
08 Jul 5.7 22:19:19 14° SE 22:23:54 49° ENE 22:29:15 10° N visible
